Location: Cheyres
(46.8153°N, 6.7877°E)
Time: 21:13:16
(UTC+00:00)

QB50P2 - Pass Details

Date: 27 June 2022
Orbit: 590 x 605 km, 97.9° (Epoch: 07 August)

Event Time Altitude Azimuth Distance (km) Brightness Sun altitude
Rises 02:35:42 0° 355° (N) 2,855 ? -9.0°
Reaches altitude 10° 02:39:05 10° 325° (NW) 1,950 ? -8.6°
Maximum altitude 02:40:47 12° 301° (WNW) 1,802 ? -8.4°
Drops below altitude 10° 02:42:29 10° 277° (W) 1,948 ? -8.2°
Enters shadow 02:44:19 - 258° (WSW) 2,370 ? -8.0°
